Flag for Germany Weather past 2 weeks in Oberhausen, North Rhine-Westphalia, Germany

Now
36 °F

Clear.


Feels Like: 33 °F
Forecast: 39 / 59 °F
Wind: 3 mph from Northeast

Location: Duesseldorf

Current Time: Apr 18, 2015 at 7:05:42 AM

Latest Report: Apr 18, 2015 at 6:20 AM


Visibility: 10 mi

Pressure: 30.27 "Hg

Humidity: 87%

Dew point: 32 °F

Location of OberhausenLocation

Historic Weather in Oberhausen — Graph

°F

Oberhausen temperature yesterday

Maximum temperature yesterday: 55 °F (at 4:20 PM)
Minimum temperature yesterday: 41 °F (at 6:20 AM)
Average temperature yesterday: 48 °F

Past Weeks' High & Low Weather Summary

 TemperatureHumidityPressure
High75 °F (Apr 15, 3:20 PM)100% (Apr 7, 6:50 AM)30.66 "Hg (Apr 7, 6:50 AM)
Low28 °F (Apr 7, 6:50 AM)25% (Apr 12, 4:50 PM)29.92 "Hg (Apr 15, 6:50 PM)
Average50 °F65%30.24 "Hg
* Reported Apr 3 6:20 AM — Apr 18 6:20 AM, Oberhausen, Weather by CustomWeather, © 2015

Note: Actual official high and low records may vary slightly from our data, if they occured in-between our weather recording intervals... More about our weather records

Advertising

Oberhausen weather history for previous 24 hours

 ConditionsComfort  
Time TempWeatherWind HumidityBarometerVisibility
6:20 AM
Sat, Apr 18
36 °FClear.3 mph87%30.27 "Hg10 mi
5:50 AM36 °FClear.5 mph87%30.27 "Hg10 mi
5:20 AM36 °FClear.6 mph87%30.27 "Hg10 mi
4:50 AM36 °FClear.5 mph87%30.27 "Hg10 mi
4:20 AM37 °FClear.5 mph81%30.27 "Hg10 mi
3:50 AM37 °FClear.7 mph81%30.27 "Hg10 mi
3:20 AM37 °FClear.7 mph81%30.27 "Hg10 mi
2:50 AM39 °FClear.7 mph75%30.27 "Hg10 mi
2:20 AM39 °FClear.7 mph75%30.24 "Hg10 mi
1:50 AM41 °FClear.7 mph70%30.24 "Hg10 mi
1:20 AM41 °FClear.7 mph70%30.24 "Hg10 mi
12:50 AM43 °FClear.7 mph71%30.24 "Hg10 mi
12:20 AM43 °FClear.8 mph71%30.21 "Hg10 mi
11:50 PM
Fri, Apr 17
45 °FClear.8 mph66%30.21 "Hg10 mi
11:20 PM45 °FClear.8 mph66%30.18 "Hg10 mi
10:50 PM46 °FClear.8 mph57%30.18 "Hg10 mi
10:20 PM46 °FClear.8 mph57%30.18 "Hg10 mi
9:50 PM48 °FClear.9 mph54%30.15 "Hg10 mi
9:20 PM48 °FSunny.8 mph54%30.15 "Hg10 mi
8:50 PM50 °FSunny.9 mph47%30.12 "Hg10 mi
8:20 PM50 °FSunny.10 mph47%30.12 "Hg10 mi
7:50 PM52 °FSunny.10 mph44%30.12 "Hg10 mi
7:20 PM54 °FSunny.13 mph41%30.09 "Hg10 mi
6:50 PM54 °FSunny.9 mph44%30.09 "Hg10 mi
6:20 PM54 °FSunny.9 mph47%30.09 "Hg10 mi
5:50 PM55 °FSunny.10 mph38%30.09 "Hg10 mi
5:20 PM55 °FSunny.14 mph44%30.07 "Hg10 mi
4:50 PM55 °FSunny.13 mph44%30.07 "Hg10 mi
4:20 PM55 °FScattered clouds.13 mph44%30.07 "HgN/A
3:50 PM54 °FScattered clouds.12 mph47%30.07 "HgN/A
3:20 PM54 °FScattered clouds.10 mph47%30.07 "HgN/A
2:50 PM54 °FScattered clouds.13 mph51%30.07 "HgN/A
2:20 PM52 °FScattered clouds.12 mph54%30.07 "HgN/A
1:50 PM52 °FBroken clouds.14 mph58%30.07 "HgN/A
1:20 PM54 °FBroken clouds.13 mph51%30.07 "HgN/A
12:50 PM52 °FBroken clouds.12 mph58%30.07 "HgN/A
12:20 PM52 °FPartly sunny.9 mph58%30.07 "HgN/A
11:50 AM50 °FPartly sunny.10 mph58%30.07 "HgN/A
11:20 AM50 °FPartly sunny.13 mph58%30.07 "HgN/A
10:50 AM50 °FPartly sunny.14 mph58%30.07 "HgN/A
10:20 AM50 °FSunny.10 mph54%30.04 "Hg10 mi
9:50 AM48 °FSunny.13 mph62%30.04 "Hg10 mi
9:20 AM46 °FSunny.9 mph66%30.04 "Hg10 mi
8:50 AM45 °FSunny.10 mph71%30.04 "Hg10 mi
8:20 AM45 °FSunny.8 mph71%30.01 "Hg10 mi
7:50 AM43 °FSunny.6 mph76%30.01 "Hg10 mi
7:20 AM41 °FClear.7 mph81%30.01 "Hg10 mi
Weather by CustomWeather, © 2015

See weather overviewHow to use our weather pages